Location: Casper
(42.8670°N, 106.3130°W)
Time: 16:33:44
(UTC-06:00)

Daily predictions for brighter satellites

Satellite Brightness Start Highest point End
(mag) Time Altitude Azimuth Time Altitude Azimuth Time Altitude Azimuth
CENTAUR R/B 4.2 20:20:44 10° WSW 20:26:31 38° NW 20:33:03 10° NNE
Meteor 2-20 4.5 20:28:02 10° N 20:34:11 84° E 20:40:20 10° S
Cosmos 1655 Rocket 4.3 20:29:54 10° N 20:36:09 53° ENE 20:42:19 10° SSE
Cosmos 220 Rocket 4.3 20:35:35 10° NNW 20:40:03 76° WSW 20:44:29 10° SSE
Cosmos 2242 Rocket 3.6 20:38:27 10° S 20:42:55 68° E 20:47:23 10° NNE
Cosmos 1939 Rocket 3.6 20:41:12 10° SE 20:44:55 37° ENE 20:48:36 10° N
USA 229 DEB 4.4 20:41:11 10° S 20:46:55 30° ESE 20:52:45 10° NE
USA 229 4.4 20:41:19 10° S 20:47:02 30° ESE 20:52:51 10° NE
Cosmos 1992 Rocket 4.0 20:45:19 10° S 20:50:29 65° ESE 20:55:41 10° NNE
Cosmos 2279 Rocket 4.0 20:49:56 10° S 20:56:07 67° E 21:02:17 10° NNE
Lacrosse 4 Rocket 2.3 20:52:24 10° NW 20:56:37 51° WSW 21:00:53 10° S
Cosmos 2263 Rocket 2.2 20:51:19 10° NNW 20:56:55 78° ENE 21:02:29 10° SSE
Helios 1B rocket 2.4 20:53:10 10° NNE 20:57:15 62° ESE 21:01:19 10° S
Atlas Centaur 2 3.7 20:54:27 10° SW 20:59:59 28° SSE 21:05:12 14° ESE
Resurs 01 Rocket 3.1 21:00:20 10° SSW 21:04:27 37° W 21:08:37 10° NNW
BREEZE-M DEB (TANK) 4.1 21:00:33 10° SW 21:04:35 66° SSE 21:15:26 10° ENE
SAR-Lupe-4 3.6 21:02:51 10° SSE 21:06:26 83° WSW 21:10:03 10° NNW
Cosmos 2322 Rocket 2.6 21:02:18 10° SW 21:07:53 67° WNW 21:13:30 10° NNE
FALCON 9 R/B 2.3 21:07:09 10° SW 21:08:27 14° S 21:08:45 13° S
Cosmos 1825 2.9 21:04:55 10° NNW 21:08:38 53° W 21:12:20 10° S
Cosmos 1428 Rocket 4.4 21:02:41 10° N 21:08:49 79° E 21:14:57 10° S
USA 267 3.9 21:06:53 10° NE 21:13:17 58° NNW 21:19:40 10° WSW
Intercosmos 25 Rocket 3.8 21:10:50 10° SSW 21:14:03 59° WNW 21:18:21 10° N
COSMOS 2428 3.7 21:10:54 11° SSE 21:15:12 26° ESE 21:19:48 10° NE
OAO 3 Rocket 4.3 21:11:27 10° WSW 21:15:40 29° S 21:18:18 18° SE
Cosmos 2360 Rocket 2.2 21:10:39 10° S 21:16:10 58° ESE 21:21:44 10° NNE
CZ-4C R/B 4.3 21:12:46 10° NNW 21:18:12 24° NNE 21:24:08 10° E
Cosmos 1908 Rocket 3.7 21:15:07 10° N 21:19:22 54° E 21:22:17 19° SSE
Sich 1 Rocket 3.7 21:16:52 10° N 21:21:18 57° E 21:24:25 19° SSE
Cosmos 1408 4.4 21:20:05 10° NNW 21:23:24 32° W 21:26:40 10° SSW
Cosmos 968 Rocket 3.5 21:19:37 10° NNW 21:24:50 71° ENE 21:28:29 20° SSE
Meteor 1-29 3.5 21:25:46 10° N 21:29:13 61° WNW 21:32:37 10° SSW
ATLAS 5 CENTAUR R/B 2.5 21:24:30 10° NW 21:30:32 83° SW 21:35:10 20° SSE
Cosmos 2322 3.7 21:25:56 10° SSW 21:31:35 67° ESE 21:37:15 10° NNE
Cosmos 1782 Rocket 3.9 21:29:38 10° N 21:33:51 45° ENE 21:35:39 29° SE
Cosmos 1733 Rocket 4.3 21:32:46 10° NNW 21:36:57 41° W 21:41:07 10° SSW
SL-16 R/B 3.6 21:32:44 10° SW 21:38:03 40° WNW 21:43:25 10° NNE
Cosmos 1867 3.6 21:33:12 10° NW 21:38:42 83° WSW 21:41:58 25° SSE
Envisat 3.8 21:35:26 10° S 21:40:20 48° W 21:45:16 10° NNW
ARGOS 3.6 21:37:52 26° SE 21:40:27 44° ENE 21:45:33 10° N
Terra 3.7 21:40:44 14° ENE 21:41:52 15° ENE 21:44:36 10° NNE
H-2A R/B 3.1 21:40:23 23° E 21:42:00 27° ENE 21:46:07 10° N
Abrixas rocket 3.9 21:39:56 10° WNW 21:42:53 29° N 21:44:58 15° NE
Okean 2 Rocket 3.5 21:41:47 10° N 21:46:08 44° ENE 21:47:26 34° ESE
Okean 1-7 3.2 21:45:28 32° SSE 21:47:09 51° E 21:51:27 10° NNE
USA 234 3.3 21:44:02 25° SE 21:48:10 77° SW 21:54:45 10° NW
Cosmos 2333 4.4 21:50:09 21° S 21:53:46 47° ESE 21:59:16 10° NE
Cosmos 2237 Rocket 3.9 21:55:50 16° E 21:55:50 16° E 21:57:59 10° ENE
Cosmos 2333 Rocket 3.3 21:55:19 25° E 21:55:19 25° E 21:59:30 10° NE
Cosmos 2278 Rocket 3.6 21:52:50 10° N 21:57:31 25° NE 21:59:34 21° E
YAOGAN 6 3.4 21:55:56 24° SSW 21:57:47 47° W 22:01:17 10° NNW
Cosmos 1844 Rocket 2.9 21:53:23 10° NNW 21:58:52 55° ENE 22:00:56 36° ESE
BREEZE-M DEB (TANK) 4.3 21:58:36 10° WNW 22:02:33 70° N 22:16:13 10° E
ERS-1 Rocket 3.4 22:02:03 22° S 22:05:11 59° W 22:10:09 10° NNW
Cosmos 1703 Rocket 4.0 22:04:06 16° SSW 22:07:35 62° W 22:11:59 10° N
Nimbus 7 Rocket 4.5 22:03:07 10° NNE 22:08:58 57° ESE 22:11:30 34° SSE
SeaSat 1 2.6 22:07:43 42° ESE 22:09:11 60° ENE 22:14:03 10° NNW
MetOp-A 4.2 22:06:50 31° S 22:09:30 78° WSW 22:14:54 10° NNW
Cosmos 1782 2.8 22:11:51 58° E 22:11:51 58° E 22:15:44 10° NNE
Cosmos 2219 Rocket 2.3 22:19:11 47° SE 22:19:53 50° ESE 22:25:18 10° NE
Cosmos 2151 Rocket 3.9 22:15:58 10° N 22:20:18 49° ENE 22:20:21 49° E
Cosmos 1346 Rocket 4.3 22:29:30 25° NE 22:29:30 25° NE 22:31:34 10° NNE
Cosmos 2221 Rocket 4.3 22:25:40 24° SW 22:28:02 50° WNW 22:32:22 10° N
SPOT 1/Viking Rocket 3.5 22:28:19 54° SSE 22:29:34 88° E 22:34:49 10° NNW
SPOT 5 3.1 22:29:53 44° SSW 22:31:11 61° WSW 22:35:47 10° NNW
NOSS 3-1 (C) 3.3 22:29:43 40° S 22:31:42 63° ESE 22:38:02 10° NE
Iridium 4 Rocket 4.4 22:30:04 10° NNE 22:32:40 26° NE 22:32:40 26° NE
Meteor 1-27 Rocket 3.9 22:35:39 51° ESE 22:35:55 51° E 22:41:18 10° NNE
Cosmos 1777 Rocket 4.5 22:31:45 10° NNW 22:36:54 54° WSW 22:38:19 41° SSW
USA 229 DEB 4.2 22:30:44 10° SW 22:37:28 60° NW 22:44:22 10° NNE
USA 229 4.2 22:30:50 10° SW 22:37:34 60° NW 22:44:28 10° NNE
Okean 1 Rocket 4.4 22:33:58 10° NNE 22:37:05 27° NE 22:37:05 27° NE
IGS 5A 4.3 22:40:09 40° NE 22:40:09 40° NE 22:43:27 10° N
Cosmos 1633 3.5 22:36:25 10° N 22:39:03 43° NNE 22:39:03 43° NNE
ASTEX 1 3.5 22:41:51 60° E 22:41:55 60° E 22:46:50 10° N
NOSS 0 Rocket 3.9 22:45:32 57° ESE 22:45:49 58° ESE 22:51:50 10° NNE
SL-08 RB Rocket 4.1 22:45:37 50° SW 22:46:12 54° W 22:50:41 10° NNW
NOSS 3-1 (A) 3.3 22:47:49 60° ESE 22:47:52 60° ESE 22:54:12 10° NE
Atlas Centaur 2 3.8 22:42:24 10° WSW 22:47:50 30° SSW 22:47:50 30° SSW
H-2A R/B 2.3 22:51:22 65° NNE 22:51:22 65° NNE 22:55:11 10° N
COSMOS 2428 3.6 22:53:40 10° SW 22:59:08 48° WNW 23:04:41 10° NNE
Cosmos 2360 Rocket 4.4 22:56:03 10° WSW 23:00:34 24° NW 23:05:07 10° N
Meteor 1-11 Rocket 3.5 22:55:08 10° N 23:00:42 85° E 23:01:00 80° SE
Cosmos 1553 Rocket 3.9 23:01:48 62° S 23:02:59 89° E 23:09:15 10° N
SL-08 R/B 4.3 22:57:40 10° N 23:03:51 87° W 23:04:42 68° S
Landsat 7 4.0 23:04:01 65° W 23:04:01 65° W 23:08:41 10° NNW
Cosmos 1606 4.2 23:06:26 34° WNW 23:06:26 34° WNW 23:09:34 10° N
CZ-4C R/B 2.9 23:00:43 10° NW 23:07:52 77° NE 23:09:38 56° ESE
Cosmos 1980 3.6 23:10:35 78° ENE 23:10:35 78° ENE 23:16:01 10° NNE
Cosmos 1844 4.1 23:05:53 10° NW 23:11:21 51° WSW 23:11:46 50° SW
Cosmos 1536 4.2 23:10:14 10° N 23:12:45 36° N 23:12:45 36° N
Cosmos 1300 Rocket 4.2 23:10:14 10° N 23:13:34 52° NNW 23:13:34 52° NNW
SL-16 R/B 3.6 23:18:26 26° ENE 23:18:26 26° ENE 23:21:19 10° NE
SL-19 R/B 4.3 23:11:15 10° NNE 23:17:21 84° WNW 23:17:55 73° SW
ATLAS 3B R/B 4.2 23:12:19 10° NNW 23:18:04 27° NE 23:21:09 20° ENE
Geosat 4.1 23:13:34 10° NNE 23:17:55 67° NNE 23:17:55 67° NNE
Terra 2.2 23:19:36 60° WNW 23:19:36 60° WNW 23:23:49 10° NNW
CZ-4B R/B 4.1 23:15:23 10° NNE 23:18:48 46° NE 23:18:48 46° NE
H-2A R/B 3.0 23:21:01 36° WSW 23:21:17 36° W 23:25:50 10° NNW
Cosmos 2298 Rocket 4.2 23:24:00 10° NNW 23:28:43 68° N 23:28:43 68° N
Cosmos 883 Rocket 4.4 23:31:41 72° ENE 23:31:41 72° ENE 23:37:29 10° NNE
Spot 4 4.4 23:33:48 56° NNW 23:33:48 56° NNW 23:37:34 10° NNW
S3M 4.4 23:32:34 49° WSW 23:33:45 57° WNW 23:39:52 10° N
Cosmos 1386 Rocket 4.4 23:29:51 10° N 23:36:16 78° W 23:36:32 76° SW
Cosmos 2237 Rocket 2.4 23:37:35 68° WNW 23:37:45 68° WNW 23:43:27 10° NNE
Cosmos 2333 Rocket 2.9 23:37:13 39° WSW 23:38:47 50° WNW 23:44:25 10° NNE
Cosmos 1709 Rocket 4.0 23:34:41 10° N 23:40:57 73° ENE 23:40:57 73° ENE
Cosmos 2278 Rocket 2.7 23:36:24 10° NNW 23:41:25 52° W 23:41:25 52° W
Cosmos 1844 Rocket 4.4 23:38:12 10° NW 23:42:19 21° W 23:42:37 21° WSW
Gbstr 26 Del rocket 4.3 23:41:40 57° SSW 23:43:32 79° SE 23:51:38 10° ENE
CZ-2C R/B 4.3 23:41:44 10° NE 23:44:34 24° ENE 23:44:34 24° ENE
SeaSat 1 4.4 23:47:30 18° W 23:47:30 18° W 23:50:28 10° WNW
Cosmos 1937 Rocket 4.0 23:45:21 10° NNW 23:49:30 56° NW 23:49:30 56° NW
